This is the latest recevied weather packets stored in our database for station/object KD8DLP-13. If no packets are shown the sender has not sent any weather packets the latest 10 day(s).
| Time | Temp. | Humidity | Pressure | Rain* | Wind** | Luminosity | Snow |
|---|---|---|---|---|---|---|---|
| 1777966481 | 12.22° C | 59% | 1001.8 hPa | 0 mm | - | 0 W/m² | - |
| 1777966178 | 12.22° C | 61% | 1001.9 hPa | 0 mm | - | 0 W/m² | - |
| 1777965874 | 12.22° C | 62% | 1002 hPa | 0 mm | - | 0 W/m² | - |
| 1777965571 | 12.22° C | 64% | 1002 hPa | 0 mm | - | 0 W/m² | - |
| 1777965267 | 12.22° C | 65% | 1002.1 hPa | 0 mm | - | 0 W/m² | - |
| 1777964965 | 11.67° C | 69% | 1001.9 hPa | 0 mm | - | 0 W/m² | - |
| 1777964661 | 11.67° C | 71% | 1002 hPa | 0 mm | - | 0 W/m² | - |
| 1777964357 | 11.67° C | 74% | 1002.1 hPa | 0 mm | - | 0 W/m² | - |
| 1777964054 | 11.67° C | 74% | 1002 hPa | 0 mm | - | 0 W/m² | - |
| 1777963750 | 11.67° C | 75% | 1002 hPa | 0 mm | - | 0 W/m² | - |
| 1777963448 | 11.67° C | 76% | 1001.8 hPa | 0 mm | - | 0 W/m² | - |
| 1777963146 | 11.67° C | 77% | 1001.6 hPa | 0 mm | - | 0 W/m² | - |
| 1777962842 | 11.67° C | 78% | 1001.6 hPa | 0 mm | - | 0 W/m² | - |
| 1777962538 | 11.67° C | 80% | 1001.7 hPa | 0 mm | - | 0 W/m² | - |
| 1777962236 | 11.67° C | 81% | 1001.5 hPa | 0 mm | - | 0 W/m² | - |
| 1777961932 | 12.22° C | 81% | 1001.5 hPa | 0 mm | - | 0 W/m² | - |
| 1777961631 | 12.22° C | 80% | 1001.5 hPa | 0 mm | - | 0 W/m² | - |
| 1777961328 | 12.22° C | 80% | 1001.7 hPa | 0 mm | - | 0 W/m² | - |
| 1777961025 | 12.78° C | 79% | 1001.3 hPa | 0 mm | - | 0 W/m² | - |
| 1777960721 | 12.78° C | 80% | 1001.5 hPa | 0 mm | - | 0 W/m² | - |
| 1777960417 | 12.22° C | 81% | 1001.8 hPa | 0 mm | - | 0 W/m² | - |
| 1777960114 | 12.22° C | 83% | 1001 hPa | 0 mm | - | 0 W/m² | - |
| 1777959812 | 12.22° C | 84% | 1001.3 hPa | 0 mm | - | 0 W/m² | - |
| 1777959510 | 12.22° C | 84% | 1001.3 hPa | 0 mm | - | 0 W/m² | - |
| 1777959206 | 12.22° C | 84% | 1001.4 hPa | 0 mm | - | 0 W/m² | - |
* Rain latest hour (hover to see other rain measurements)
** Current wind speed in m/s (hover to see current wind gust speed)